SCP
-0 -0 -0 -0 -0 -0 -0 -0 -0 -0 0 0 0 0 0 0 1 1 1 1 1 1 1 1 1 1 1 1 1 1 1 0 0 0 0 0 0 0 0 0 0 0 0 0
-0 -0 -0 -0 -0 -0 -0 -0 -0 -0 0 0 0 0 0 0 1 1 1 1 1 2 2 2 1 1 1 1 1 1 1 0 0 0 0 0 0 0 0 0 0 0 0 0
-0 -0 -0 -0 0 0 0 0 0 0 0 0 0 0 0 0 1 1 1 1 2 2 2 2 2 1 1 1 1 1 1 0 0 0 0 0 0 0 0 0 0 0 0 0
-0 -0 -0 0 0 0 0 0 0 0 0 0 0 1 1 1 1 1 1 1 2 2 2 2 2 1 1 1 1 1 1 0 0 0 0 0 0 0 0 0 0 0 0 0
-0 -0 -0 0 0 0 0 0 0 0 1 1 1 1 1 1 1 1 1 2 2 2 2 2 2 2 1 1 1 1 1 0 0 0 0 0 0 0 0 0 0 0 0 0
0 0 0 0 0 0 0 0 1 1 1 1 1 1 1 1 1 2 2 2 2 2 2 2 2 2 1 1 1 1 1 0 0 0 0 0 0 0 0 0 0 0 0 0
0 0 0 0 0 0 0 1 1 1 1 1 1 1 1 2 2 2 2 2 2 2 2 2 2 2 1 1 1 1 1 0 0 0 0 0 0 0 0 0 0 0 0 0
0 0 0 1 1 1 1 1 1 1 1 1 1 2 2 2 2 2 2 2 2 2 2 2 2 2 1 1 1 1 1 1 0 0 0 0 1 1 0 0 0 0 0 0
0 0 1 1 1 1 1 1 1 1 1 1 1 1 1 2 2 2 2 2 2 2 2 2 2 2 1 1 1 1 1 1 1 1 1 1 1 0 0 0 0 0 0 0
1 1 1 1 1 1 1 1 1 1 1 1 1 1 1 1 2 2 2 2 2 2 2 2 2 2 2 1 1 1 1 1 1 1 1 1 0 0 0 0 0 0 0 0
1 1 1 1 1 1 1 1 1 1 1 1 1 1 1 1 1 2 2 2 2 2 2 2 2 1 1 1 1 1 1 1 1 1 0 0 0 0 0 0 0 0 0 0
1 1 1 1 1 1 1 1 1 1 1 1 1 1 1 1 1 1 1 1 1 1 1 1 1 1 1 1 1 1 1 1 0 0 0 0 0 0 0 0 0 0 0 0
1 1 1 1 1 1 1 1 1 1 1 1 1 1 1 1 1 1 1 1 1 1 1 1 1 1 1 1 1 1 1 0 0 0 0 0 0 0 0 0 0 0 0 0
1 1 1 1 1 0 0 0 1 1 1 1 1 1 1 1 1 0 1 1 1 1 1 1 1 1 1 0 0 0 0 0 0 0 0 0 0 0 0 0 0 0 0 0
1 1 1 1 0 0 0 0 0 0 0 0 0 0 0 0 0 0 0 0 0 1 1 1 1 0 0 0 0 0 0 0 0 0 0 0 0 0 0 0 0 0 0 0
0 0 0 0 0 0 0 0 0 0 0 0 0 0 0 0 0 0 0 0 0 0 0 0 0 0 0 0 0 0 0 0 0 0 0 0 0 0 0 0 0 0 0 0
0 0 0 0 0 0 0 0 0 0 0 0 0 0 0 0 0 0 0 0 0 0 0 0 0 0 0 0 0 0 0 0 0 0 0 0 0 0 0 0 0 0 0 0
0 0 0 0 0 0 0 0 0 0 0 0 0 0 0 0 0 0 0 0 0 0 0 0 0 0 0 0 0 0 0 0 0 0 0 0 0 0 0 0 0 0 0 0
0 0 0 0 0 0 0 0 0 0 0 0 0 0 0 0 0 0 0 0 0 0 0 0 0 0 0 0 0 0 0 0 0 0 0 0 0 0 0 0 0 0 0 0
0 0 0 0 0 0 0 0 0 0 0 0 0 0 0 0 0 0 0 0 0 0 0 0 0 0 0 0 0 0 0 0 0 0 0 0 0 0 0 0 0 0 0 0
0 0 0 0 0 0 0 0 0 0 0 0 0 0 0 0 0 0 0 0 0 0 0 0 0 0 0 0 0 0 0 0 0 0 0 0 0 0 0 0 0 0 0 0
0 0 0 0 0 0 0 0 0 0 0 0 0 0 0 0 0 0 0 0 0 0 0 0 0 0 0 0 -0 0 0 0 0 0 0 0 0 0 0 0 0 0 0 0
0 0 0 0 0 0 0 0 0 0 0 0 0 0 0 0 0 0 0 0 0 0 0 0 0 0 0 -0 -0 -0 -0 0 0 0 0 0 0 0 0 0 0 0 0 0
0 0 0 0 0 0 0 0 0 0 0 0 0 0 0 0 0 0 0 0 0 0 0 0 0 0 0 0 -0 -0 0 0 0 0 0 0 0 0 0 0 0 0 0 0
0 0 0 0 0 0 0 0 0 0 0 0 0 0 0 0 0 0 0 0 0 0 0 0 0 0 0 0 0 0 0 0 0 0 0 0 0 0 0 0 0 0 0 0
0 0 0 0 0 0 0 0 0 0 0 0 0 0 0 0 0 0 0 0 0 0 0 0 0 0 0 0 0 0 0 0 0 0 0 0 0 0 0 0 0 0 0 0
0 0 0 0 0 0 0 0 0 0 0 0 0 0 0 0 0 0 0 0 0 0 0 0 0 0 0 0 0 0 0 0 0 0 0 0 0 0 0 0 0 0 0 0
Wind_Speed
11 6 7 11 12 13 15 13 12 9 9 6 3 3 3 6 9 10 11 11 11 10 9 9 8 8 7 7 6 6 7 6 6 5 4 3 3 3 2 2 2 2 2 1
11 9 9 10 11 12 13 12 12 10 7 3 1 2 3 6 9 10 11 12 12 11 11 10 9 8 8 7 7 7 6 6 6 5 5 4 4 3 3 3 3 3 2 2
12 11 11 13 11 11 11 9 10 10 5 2 2 2 2 4 7 9 10 11 12 12 11 9 9 8 8 8 7 7 6 6 6 5 5 5 4 4 4 4 3 3 3 2
9 10 16 6 4 7 8 7 6 5 3 2 3 1 1 1 3 5 7 9 10 10 10 10 9 9 8 8 7 7 6 6 6 5 6 5 5 4 4 3 3 3 3 3
10 13 11 6 5 6 8 6 3 3 2 2 1 2 4 3 1 2 3 6 8 9 10 9 9 10 9 8 7 7 6 6 5 5 5 5 5 5 4 4 3 3 3 3
10 13 13 7 5 2 6 8 2 1 1 1 3 6 3 4 2 2 3 5 7 9 9 9 8 9 9 9 8 6 6 6 5 5 5 5 5 4 4 3 3 3 3 3
12 12 7 4 4 5 9 2 3 1 0 1 1 4 4 3 4 4 5 6 8 9 8 8 8 8 8 8 7 6 6 5 5 5 5 4 4 4 3 3 3 3 4 3
11 12 7 5 3 3 3 5 3 2 2 2 4 5 4 5 5 5 5 6 8 8 7 7 8 8 8 7 6 6 6 6 5 5 4 4 4 4 3 3 4 4 3 3
3 0 6 3 2 3 2 2 2 2 3 3 4 5 5 5 5 5 5 5 6 7 8 6 6 6 6 5 5 6 6 5 5 4 4 3 4 4 3 3 3 3 3 3
2 3 3 4 4 3 3 3 3 3 3 4 4 5 5 5 5 5 5 5 5 6 7 6 5 4 4 5 5 6 6 5 5 5 4 4 3 3 2 2 2 2 2 2
3 3 4 4 4 4 5 5 5 4 4 4 4 4 5 5 5 5 5 5 4 4 5 5 5 4 4 5 5 5 5 5 5 5 4 4 3 2 1 2 1 0 1 2
2 3 2 3 2 3 3 4 4 3 4 4 3 3 4 4 4 4 4 4 4 4 5 5 4 4 3 4 5 5 5 4 4 3 4 4 5 4 4 3 4 3 3 2
1 0 2 2 2 2 2 3 3 3 3 3 3 3 3 3 3 3 3 4 4 4 4 4 4 3 3 3 4 4 4 4 3 3 3 3 4 4 4 4 3 3 2 1
0 2 3 2 1 1 1 2 2 2 2 2 2 2 2 2 3 2 2 3 3 3 3 3 3 3 2 3 4 4 4 3 3 3 3 3 3 3 3 4 4 3 4 4
1 1 2 1 1 1 1 1 1 1 1 1 1 1 2 2 2 2 2 2 3 3 3 3 2 2 2 3 3 3 3 2 2 2 3 3 3 3 3 3 3 3 3 5
1 1 2 2 2 2 2 2 1 1 1 1 1 1 1 1 2 2 2 2 2 2 2 2 2 2 2 3 3 3 2 2 2 2 2 3 3 3 3 3 3 2 2 2
3 3 2 3 2 2 2 2 2 2 2 2 1 1 2 2 1 1 1 1 1 2 2 2 2 2 2 2 2 2 2 3 4 3 2 2 2 2 2 3 3 2 2 2
3 4 4 4 3 3 3 3 3 3 2 1 1 2 2 2 1 1 1 1 1 1 1 1 1 2 2 2 1 1 2 2 3 2 2 2 2 2 2 2 2 2 2 4
2 3 4 4 4 4 4 4 2 1 1 1 2 1 1 1 1 1 1 1 1 1 0 1 2 2 2 2 2 2 2 3 2 2 2 2 3 2 2 2 2 2 1 2
2 2 3 3 3 3 3 2 2 2 2 2 2 2 1 1 1 1 1 1 1 0 1 1 1 1 2 2 2 2 2 3 3 2 2 2 2 2 2 2 2 2 2 2
3 3 3 2 2 2 2 2 2 2 2 2 2 2 1 1 1 2 2 2 1 1 1 2 2 1 2 2 3 2 2 2 2 2 2 2 2 2 1 1 2 2 2 1
3 3 3 3 2 2 1 1 1 2 2 2 2 2 1 1 2 2 1 1 2 2 2 2 2 2 1 1 2 1 2 2 2 2 2 2 2 2 2 2 1 1 1 1
3 3 3 2 1 1 1 0 1 2 2 2 2 2 1 1 1 1 2 2 2 2 1 2 3 3 1 2 1 1 1 2 1 2 2 2 2 1 1 1 1 1 1 0
2 2 1 1 0 1 1 1 2 2 3 3 2 2 2 2 1 2 2 4 3 2 2 4 3 1 2 1 1 1 1 1 1 1 1 2 2 1 1 1 1 1 1 1
2 1 1 1 1 1 2 3 3 3 3 3 3 2 2 1 2 3 3 4 4 3 4 5 3 1 1 2 2 2 3 3 3 2 2 2 2 2 2 2 1 1 1 1
1 1 2 2 2 2 2 2 2 3 3 3 3 3 3 3 4 4 3 4 4 3 3 4 4 3 2 3 3 2 3 4 3 2 3 2 3 2 2 2 2 2 2 2
2 2 2 2 2 2 2 2 3 3 3 4 4 4 4 4 4 4 4 3 3 3 3 3 3 3 3 3 3 3 3 3 3 3 3 3 2 2 2 3 2 2 2 2
Wind_Direction
254 256 225 218 212 212 225 243 248 238 241 241 234 244 213 183 179 177 175 176 177 172 165 162 159 159 158 154 153 152 153 152 152 155 154 155 153 145 137 133 129 126 126 119
230 228 230 233 224 219 227 238 246 250 244 263 283 231 207 191 184 185 182 180 178 174 167 167 165 162 156 156 154 154 155 153 153 158 159 158 153 144 138 134 130 134 132 139
225 216 224 227 224 222 223 232 242 242 243 249 246 244 236 206 194 192 185 179 176 173 169 165 163 160 158 157 156 157 155 155 159 162 159 160 156 146 140 138 138 137 134 139
227 213 229 222 202 222 227 226 240 260 269 279 293 302 326 285 209 194 184 178 173 168 163 162 158 156 155 154 156 156 155 158 163 165 159 158 157 149 146 146 149 141 136 134
225 222 223 193 187 212 223 216 219 252 274 297 292 195 132 65 57 165 175 170 162 160 157 154 155 155 154 154 157 158 159 163 163 164 163 160 159 157 156 156 152 147 134 128
224 232 228 197 154 203 231 209 143 251 268 284 243 240 119 60 49 96 132 142 147 148 146 148 152 154 157 158 160 164 163 166 163 163 163 162 160 159 153 154 149 143 128 128
224 230 227 94 120 195 221 171 94 124 316 238 308 7 54 76 83 99 121 135 139 142 143 143 147 155 160 161 163 159 154 156 157 158 160 159 158 156 152 146 137 130 123 120
224 230 204 91 172 209 41 60 81 78 77 81 78 73 85 89 91 97 112 128 136 137 134 137 147 157 160 156 152 151 150 151 149 153 157 149 154 152 150 151 151 146 138 134
258 299 65 62 45 36 41 80 74 82 90 102 102 98 99 98 94 91 99 113 125 130 130 133 142 149 151 141 145 149 150 147 144 141 135 139 148 150 158 168 171 158 158 156
179 116 101 86 75 62 59 69 68 75 96 108 104 99 103 97 94 93 92 105 118 125 126 124 128 129 129 132 142 145 144 141 143 145 143 137 140 149 159 169 176 170 171 170
175 149 137 104 83 76 73 65 64 70 82 90 100 102 104 104 98 95 97 100 107 115 118 116 115 118 123 128 139 142 143 145 151 154 146 141 134 105 130 92 44 265 184 190
211 181 172 122 94 83 84 71 62 69 79 78 87 98 102 98 91 96 101 102 108 114 116 114 114 116 123 136 150 154 154 156 161 159 154 160 150 137 71 75 91 76 35 2
336 167 102 112 100 84 81 71 62 64 76 78 73 72 86 89 89 91 100 108 115 120 124 123 120 122 131 145 159 163 158 157 160 163 168 177 175 173 160 139 123 121 123 81
159 167 146 132 109 85 90 85 73 65 68 76 74 67 92 100 98 99 94 94 106 118 123 120 121 123 137 151 161 165 163 156 172 173 178 181 182 186 186 179 167 160 161 164
244 214 156 160 185 200 182 166 144 116 85 69 97 109 120 114 97 79 82 92 100 113 116 119 121 116 135 156 165 169 165 162 173 174 176 176 183 188 187 189 182 164 147 144
262 196 192 208 223 240 235 228 218 208 224 267 222 150 132 125 107 90 84 93 109 112 118 126 127 128 144 156 163 162 148 133 172 179 173 169 174 178 179 184 188 180 172 154
257 241 235 241 251 264 275 278 265 250 242 242 214 169 156 150 134 119 115 105 99 109 126 132 127 133 154 163 176 162 149 151 175 188 175 171 180 186 189 196 196 190 177 131
285 286 281 279 282 282 284 282 273 264 250 233 201 181 176 174 176 190 181 141 135 123 114 140 127 135 142 153 178 177 171 164 177 176 170 182 193 197 196 192 189 196 175 143
300 290 278 270 269 274 280 280 272 265 217 169 172 189 196 191 188 194 195 184 189 193 179 101 112 157 154 149 187 185 183 174 172 172 175 175 209 214 205 190 190 194 180 154
330 324 298 274 262 264 269 262 241 200 166 156 164 171 175 184 178 162 156 189 266 320 126 121 170 174 160 148 222 184 183 184 180 174 182 194 202 203 201 192 185 182 185 185
338 332 318 299 280 267 267 252 224 181 149 150 164 173 176 190 199 192 188 186 133 100 137 156 186 177 164 159 209 198 183 177 177 182 191 186 180 177 178 174 176 192 191 185
337 328 319 309 291 290 287 241 196 166 161 160 158 156 162 171 175 177 168 137 118 131 180 160 149 87 71 231 190 171 166 175 190 191 185 179 175 172 167 164 169 172 158 155
331 327 319 306 295 300 301 214 156 149 148 144 147 162 161 140 155 156 138 119 124 127 142 94 81 85 290 220 163 163 175 184 177 163 157 159 158 159 155 155 132 112 101 110
332 327 316 300 187 152 138 115 114 120 122 121 121 129 136 140 132 116 104 101 89 104 101 91 98 122 232 175 131 129 126 126 131 125 115 104 97 91 78 71 71 74 94 101
343 360 60 128 143 123 116 120 122 123 123 119 119 125 131 124 112 100 101 107 117 136 123 112 116 160 186 100 92 87 82 70 59 60 82 79 75 77 78 73 66 51 39 35
27 32 47 56 68 91 113 126 125 121 123 117 108 105 102 102 104 106 107 111 113 121 120 124 130 147 115 95 88 86 92 110 115 101 76 74 74 68 63 59 56 46 42 29
65 71 97 100 98 102 113 115 114 113 115 115 110 103 103 105 107 105 104 110 121 121 118 119 116 113 103 97 91 84 75 72 69 65 67 67 66 66 65 61 51 47 43 47